Home   Weather   Stonewall   Past weeks

Flag for Canada Past Weather in Stonewall, Manitoba, Canada — Yesterday and Last 2 Weeks

32 °F

Passing clouds.

Feels Like: 32 °F
Forecast: 35 / 45 °F
Wind: 2 mph from Northwest

Location: Winnipeg Int. Airportman.

Current Time: Oct 24, 2016 at 7:28:01 AM

Latest Report: Oct 24, 2016 at 7:00 AM

Visibility: 7 mi

Pressure: 30.42 "Hg

Humidity: 100%

Dew Point: 32 °F

Location of StonewallLocation

Past Weather in Stonewall — Graph


Stonewall Temperature Yesterday

Maximum temperature yesterday: 50 °F (at 3:00 PM)
Minimum temperature yesterday: 36 °F (at 9:00 PM)
Average temperature yesterday: 43 °F

High & Low Weather Summary for the Past Weeks

High57 °F (Oct 17, 2:00 PM)100% (Oct 9, 6:00 AM)30.41 "Hg (Oct 9, 6:00 AM)
Low27 °F (Oct 16, 5:00 AM)49% (Oct 13, 3:00 PM)29.34 "Hg (Oct 17, 3:00 AM)
Average41 °F79%29.95 "Hg
* Reported Oct 9 6:00 AM — Oct 24 6:00 AM, Stonewall, Weather by CustomWeather, © 2016

Note: Actual official high and low records may vary slightly from our data, if they occured in-between our weather recording intervals... More about our weather records


Stonewall Weather History for the Previous 24 Hours

Scroll right to see more
Time TempWeatherWind HumidityBarometerVisibility
6:00 AM
Mon, Oct 24
34 °FPassing clouds.6 mph100%30.41 "Hg12 mi
5:00 AM34 °FPassing clouds.6 mph100%30.40 "Hg10 mi
4:00 AM36 °FPassing clouds.5 mph87%30.39 "Hg12 mi
3:00 AM36 °FPassing clouds.2 mph87%30.39 "Hg15 mi
2:00 AM36 °FPassing clouds.8 mph87%30.38 "Hg15 mi
1:00 AM36 °FPassing clouds.8 mph81%30.37 "Hg15 mi
12:00 AM36 °FPassing clouds.3 mph87%30.35 "Hg15 mi
11:00 PM
Sun, Oct 23
36 °FPassing clouds.5 mph87%30.34 "Hg15 mi
10:00 PM36 °FClear.3 mph87%30.33 "Hg15 mi
9:00 PM36 °FClear.7 mph87%30.32 "Hg15 mi
8:00 PM37 °FClear.7 mph87%30.31 "Hg15 mi
7:00 PM41 °FPassing clouds.6 mph87%30.30 "Hg15 mi
6:00 PM45 °FPassing clouds.6 mph81%30.29 "Hg15 mi
5:00 PM50 °FPassing clouds.8 mph58%30.28 "Hg15 mi
4:00 PM50 °FScattered clouds.8 mph62%30.26 "Hg15 mi
3:00 PM50 °FScattered clouds.9 mph62%30.24 "Hg15 mi
2:00 PM48 °FScattered clouds.8 mph71%30.23 "Hg15 mi
1:00 PM48 °FBroken clouds.14 mph82%30.22 "Hg15 mi
12:00 PM46 °FPartly sunny.8 mph87%30.19 "Hg15 mi
11:00 AM45 °FBroken clouds.10 mph87%30.17 "Hg15 mi
10:00 AM43 °FBroken clouds.12 mph93%30.15 "Hg15 mi
9:00 AM41 °FBroken clouds.7 mph100%30.12 "Hg15 mi
8:00 AM41 °FMostly cloudy.7 mph100%30.09 "Hg15 mi
7:00 AM41 °FOvercast.7 mph100%30.06 "Hg15 mi
Weather by CustomWeather, © 2016

See weather overviewHow to use our weather pages